FENGYUN 1C DEB, 30102

Orbit data source: Space-Track

FENGYUN 1C DEB, 30102 is space debris in SSO originally from a launch on Mon, 10 May 1999 UTC launched from the Taiyaun Space Center, China (TSC). Fengyun 1C debris stems from the Chinese weather satellite Fengyun-1C, which was intentionally destroyed by a Chinese anti-satellite missile in 2007. This event dramatically increased the amount of space debris, with thousands of trackable fragments posing hazards to satellites and human spaceflight. The Fengyun 1C debris cloud has become a focal point in discussions about space sustainability and the need for international regulations to prevent the creation of new debris.

Loading next visibility...
Identifier
30102, 1999-025RF
Orbit
SSO
Country
Flag of CNCN / PRC
Related business
Manufacturer
Unknown
Mission
Spacecraft
Bus & Motor
Unknown
Mass
Unknown
Launch date (UTC)
1999-05-10 (27 years ago)
Launch vehicle
Unknown
Launch site
Taiyaun Space Center, China (TSC)
Object type
Payload
Rocket body
Debris
Shape & HBR
Unknown shape, 0.1 m
Radar Cross Section
Small (<0.1 m²)

Expand to show TLE details & history
Last TLE update: 14 hours ago

TLE from 14 hours ago
0 FENGYUN 1C DEB
1 30102U 99025RF  26071.02150240  .00000482  00000-0  21173-3 0  9992
2 30102  98.3807  79.4164 0142734  99.0028 327.9538 14.22241322992272
Epoch: 2026-03-12T00:30Z
TLE epoch observation values (Epoch: 2026-03-12T00:30:57.807Z)
Latitude
64.82198°
Longitude
-116.16405°
Altitude
742.283 km
Speed
7.535 km/s
True Right ascension
04h 05m 01s
True Declination
64° 41' 20"
Sunlit
Object was in daylight at epoch
Visualization orbit readout
Latitude
Unknown
Longitude
Unknown
Altitude
Unknown
Speed
Unknown
Apparent Right ascension
Unknown
Apparent Declination
Unknown
Sunlit
N/A
Visualization observer readout
Local Sidereal Time
18:43:39
Azimuth
Unknown
Elevation
Unknown
Doppler factor
Unknown
Orbital elements
Apogee altitude
917.591 km
Perigee altitude
712.253 km
Semi-major axis
7,193.059 km
Eccentricity
0.01427
Inclination
98.3807°
RAAN
79.4164°
Arg. of periapsis
99.0028°
True anomaly
327.07266°
Mean anomaly
327.9538°
Eccentric anomaly
327.51457°
Mean motion
3.55773 °/min
Orbital period
101.19 mins
BSTAR
0.00021173
Loading maneuver chart data...
Computing Atmospheric mass density...
Loading historical data...
Loading historical data...
Loading historical data...
Loading historical data...
Loading historical data...
Loading historical data...
Loading historical data...

Documentation

Showing up to 5 results
|